Powrót do katalogu

CZ-6A DEB

AktywnyPO
NORAD 61104·DEBRIS·🇨🇳 China

Wystrzelony Aug 6, 2024 z Taiyuan Satellite Launch Center

Loading…

Następne Przeloty (najbliższe 24 godziny)

TLE

ŚwieżeSource: Space-Track

Epoka: Sep 14, 2026, 10:52 UTC

1 61104U 24140NW  26257.45281574  .00000190  00000-0  81994-4 0  9996
2 61104  88.9965 264.7110 0045827 224.4039 135.3473 14.20078307106083

Śledź CZ-6A DEB w czasie rzeczywistym z AllMySat

Download on the App Store